Rural Retreat, VA

10:08 AM EST on December 07, 2016 (GMT -0500)
Mountain Empire

Weather History for KMKJ - January, 2012

Change the Weather History Date:

Friday, January 20, 2012

  Actual Average (KBLF) Record (KBLF)
Temperature  
Mean Temperature 42 °F 34 °F  
Max Temperature 50 °F 42 °F 60 °F (1988)
Min Temperature 35 °F 26 °F -20 °F (1985)
Degree Days  
Heating Degree Days 22 31  
Month to date heating degree days 620  
Since 1 July heating degree days 2385  
Cooling Degree Days 0 0  
Month to date cooling degree days 0  
Year to date cooling degree days 0  
Moisture  
Dew Point 32 °F    
Average Humidity 68    
Maximum Humidity 93    
Minimum Humidity 54    
Precipitation  
Precipitation 0.13 in 0.09 in 2.05 in (1972)
Month to date precipitation 1.88  
Year to date precipitation 1.88  
Snow  
Snow 0.00 in - - ()
Month to date snowfall  
Since 1 July snowfall  
Snow Depth -    
Sea Level Pressure  
Sea Level Pressure 30.06 in    
Wind  
Wind Speed 11 mph (West)    
Max Wind Speed 18 mph    
Max Gust Speed 23 mph    
Visibility 10 miles    
Events Rain    
T = Trace of Precipitation, MM = Missing Value Source: NWS Daily Summary

Daily Weather History Graph

Daily Weather History Graph

Search for Another Location

Airport or City:

Trip Planner

Search our weather history database for the weather conditions in past years. The results will help you decide how hot, cold, wet, or windy it might be!

Date:

Astronomy

Jan. 20, 2012 Rise Set
Actual Time 7:35 AM EST 5:37 PM EST
Civil Twilight 7:07 AM EST 6:05 PM EST
Nautical Twilight 6:36 AM EST 6:36 PM EST
Astronomical Twilight 6:05 AM EST 7:07 PM EST
Moon 5:10 AM EST (1/20) 3:09 PM EST (1/20)
Length of Visible Light 10h 57m
Length of Day
10h 01m
Waning Crescent, 8% of the Moon is Illuminated
Jan 20
Waning Crescent
Jan 23
New
Jan 30
First Quarter
Feb 7
Full
Feb 14
Last Quarter

Hourly Weather History & Observations

Time (EST) Temp. Windchill Dew Point Humidity Pressure Visibility Wind Dir Wind Speed Gust Speed Precip Events Conditions
12:15 AM 35.6 °F 26.6 °F 24.8 °F 65% 30.02 in 10.0 mi West 13.8 mph 17.3 mph N/A   Overcast
12:35 AM 35.6 °F 27.5 °F 26.6 °F 70% 30.02 in 10.0 mi West 11.5 mph - N/A   Overcast
12:55 AM 35.6 °F 26.6 °F 26.6 °F 70% 30.03 in 10.0 mi West 13.8 mph - N/A   Overcast
1:15 AM 35.6 °F 26.2 °F 26.6 °F 70% 30.03 in 10.0 mi West 15.0 mph 20.7 mph N/A   Overcast
1:35 AM 35.6 °F 26.2 °F 26.6 °F 70% 30.03 in 10.0 mi West 15.0 mph - N/A   Overcast
1:55 AM 35.6 °F 26.2 °F 26.6 °F 70% 30.03 in 10.0 mi West 15.0 mph - N/A   Overcast
2:15 AM 37.4 °F 29.3 °F 26.6 °F 65% 30.03 in 10.0 mi West 12.7 mph - N/A   Overcast
2:35 AM 37.4 °F 28.5 °F 26.6 °F 65% 30.03 in 10.0 mi West 15.0 mph - N/A   Overcast
2:55 AM 37.4 °F 27.8 °F 26.6 °F 65% 30.03 in 10.0 mi West 17.3 mph - N/A   Overcast
3:15 AM 37.4 °F 27.8 °F 26.6 °F 65% 30.02 in 10.0 mi West 17.3 mph - N/A   Overcast
3:35 AM 37.4 °F 28.2 °F 26.6 °F 65% 30.02 in 10.0 mi West 16.1 mph - N/A   Overcast
3:55 AM 37.4 °F 27.5 °F 26.6 °F 65% 30.02 in 10.0 mi West 18.4 mph 21.9 mph N/A   Overcast
4:15 AM 37.4 °F 27.8 °F 26.6 °F 65% 30.01 in 10.0 mi West 17.3 mph 23.0 mph N/A   Overcast
4:35 AM 37.4 °F 27.5 °F 26.6 °F 65% 30.01 in 10.0 mi West 18.4 mph 21.9 mph N/A   Overcast
4:55 AM 37.4 °F 28.2 °F 26.6 °F 65% 30.02 in 10.0 mi West 16.1 mph - N/A   Overcast
5:15 AM 37.4 °F 27.8 °F 26.6 °F 65% 30.02 in 10.0 mi West 17.3 mph 20.7 mph N/A   Overcast
5:35 AM 37.4 °F 29.3 °F 26.6 °F 65% 30.03 in 10.0 mi West 12.7 mph - N/A   Mostly Cloudy
5:55 AM 37.4 °F 29.8 °F 26.6 °F 65% 30.03 in 10.0 mi West 11.5 mph - N/A   Mostly Cloudy
6:15 AM 37.4 °F 28.9 °F 26.6 °F 65% 30.04 in 10.0 mi West 13.8 mph 18.4 mph N/A   Overcast
6:35 AM 35.6 °F 28.6 °F 28.4 °F 75% 30.05 in 10.0 mi WSW 9.2 mph - N/A   Mostly Cloudy
6:55 AM 35.6 °F 29.9 °F 28.4 °F 75% 30.07 in 10.0 mi WSW 6.9 mph - N/A   Overcast
7:15 AM 35.6 °F 30.7 °F 28.4 °F 75% 30.07 in 10.0 mi SW 5.8 mph - N/A   Overcast
7:35 AM 35.6 °F 32.8 °F 28.4 °F 75% 30.08 in 10.0 mi SW 3.5 mph - N/A   Mostly Cloudy
7:55 AM 35.6 °F 32.8 °F 28.4 °F 75% 30.08 in 10.0 mi West 3.5 mph - N/A   Scattered Clouds
8:15 AM 35.6 °F 32.8 °F 26.6 °F 70% 30.09 in 10.0 mi West 3.5 mph - N/A   Scattered Clouds
8:35 AM 35.6 °F - 28.4 °F 75% 30.09 in 10.0 mi Calm Calm - N/A   Mostly Cloudy
8:55 AM 37.4 °F - 28.4 °F 70% 30.10 in 10.0 mi Calm Calm - N/A   Overcast
9:15 AM 37.4 °F - 28.4 °F 70% 30.10 in 10.0 mi Calm Calm - N/A   Overcast
9:35 AM 39.2 °F - 30.2 °F 70% 30.11 in 10.0 mi Calm Calm - N/A   Overcast
9:55 AM 41.0 °F 38.0 °F 28.4 °F 61% 30.12 in 10.0 mi WSW 4.6 mph - N/A   Overcast
10:15 AM 41.0 °F 39.0 °F 30.2 °F 65% 30.13 in 10.0 mi WSW 3.5 mph - N/A   Overcast
10:35 AM 42.8 °F 41.1 °F 30.2 °F 61% 30.13 in 10.0 mi SW 3.5 mph - N/A   Overcast
10:55 AM 42.8 °F 40.1 °F 30.2 °F 61% 30.13 in 10.0 mi West 4.6 mph - N/A   Overcast
11:15 AM 44.6 °F 40.2 °F 32.0 °F 61% 30.11 in 10.0 mi West 8.1 mph - N/A   Overcast
11:35 AM 46.4 °F 42.4 °F 32.0 °F 57% 30.11 in 10.0 mi WSW 8.1 mph - N/A   Overcast
11:55 AM 46.4 °F 43.5 °F 32.0 °F 57% 30.10 in 10.0 mi WSW 5.8 mph - N/A   Overcast
12:15 PM 46.4 °F 42.9 °F 32.0 °F 57% 30.09 in 10.0 mi SW 6.9 mph - N/A   Overcast
12:35 PM 46.4 °F 43.5 °F 32.0 °F 57% 30.09 in 10.0 mi SW 5.8 mph - N/A   Mostly Cloudy
12:55 PM 48.2 °F - 32.0 °F 54% 30.08 in 10.0 mi South 3.5 mph - N/A   Scattered Clouds
1:15 PM 48.2 °F - 33.8 °F 58% 30.07 in 10.0 mi WNW 4.6 mph - N/A   Scattered Clouds
1:35 PM 48.2 °F - 33.8 °F 58% 30.06 in 10.0 mi Calm Calm - N/A   Mostly Cloudy
1:55 PM 50.0 °F - 33.8 °F 54% 30.05 in 10.0 mi Calm Calm - N/A   Overcast
2:15 PM 50.0 °F - 33.8 °F 54% 30.04 in 10.0 mi ENE 3.5 mph - N/A   Overcast
2:35 PM 48.2 °F - 35.6 °F 62% 30.04 in 10.0 mi East 4.6 mph - N/A   Overcast
2:55 PM 48.2 °F - 35.6 °F 62% 30.04 in 10.0 mi ENE 5.8 mph - N/A   Overcast
3:15 PM 48.2 °F - 35.6 °F 62% 30.04 in 10.0 mi ENE 6.9 mph - N/A   Overcast
3:35 PM 48.2 °F - 35.6 °F 62% 30.04 in 10.0 mi ENE 8.1 mph - N/A   Overcast
4:15 PM 50.0 °F - 37.4 °F 62% 30.04 in 10.0 mi East 6.9 mph - N/A   Overcast
4:35 PM 50.0 °F - 37.4 °F 62% 30.05 in 10.0 mi ESE 5.8 mph - N/A   Overcast
4:55 PM 50.0 °F - 37.4 °F 62% 30.05 in 10.0 mi East 6.9 mph - N/A   Overcast
5:15 PM 46.4 °F 42.4 °F 37.4 °F 71% 30.05 in 10.0 mi East 8.1 mph - N/A Rain Light Rain
5:35 PM 44.6 °F 41.4 °F 39.2 °F 81% 30.05 in 10.0 mi ENE 5.8 mph - N/A Rain Rain
5:55 PM 44.6 °F 40.2 °F 37.4 °F 76% 30.05 in 10.0 mi ENE 8.1 mph - N/A   Overcast
6:15 PM 44.6 °F 39.7 °F 37.4 °F 76% 30.05 in 10.0 mi ENE 9.2 mph - N/A   Overcast
6:35 PM 44.6 °F 39.2 °F 37.4 °F 76% 30.05 in 10.0 mi ENE 10.4 mph - N/A   Overcast
6:55 PM 44.6 °F 40.2 °F 37.4 °F 76% 30.06 in 10.0 mi East 8.1 mph 18.4 mph N/A   Overcast
7:15 PM 44.6 °F 39.7 °F 37.4 °F 76% 30.06 in 10.0 mi ENE 9.2 mph - N/A   Overcast
7:35 PM 44.6 °F 39.7 °F 37.4 °F 76% 30.06 in 10.0 mi ENE 9.2 mph - N/A   Overcast
7:55 PM 42.8 °F 37.0 °F 37.4 °F 81% 30.06 in 7.0 mi ENE 10.4 mph - 0.02 in Rain Rain
8:15 PM 42.8 °F 37.0 °F 37.4 °F 81% 30.06 in 5.0 mi ENE 10.4 mph - 0.03 in Rain Light Rain
8:35 PM 41.0 °F 35.2 °F 39.2 °F 93% 30.06 in 5.0 mi ENE 9.2 mph - 0.06 in Rain Light Rain
8:55 PM 41.0 °F 34.7 °F 39.2 °F 93% 30.06 in 7.0 mi ENE 10.4 mph 17.3 mph 0.06 in   Drizzle
9:15 PM 41.0 °F 33.9 °F 39.2 °F 93% 30.06 in 5.0 mi ENE 12.7 mph - 0.02 in Rain Rain
9:35 PM 41.0 °F 34.3 °F 39.2 °F 93% 30.06 in 5.0 mi ENE 11.5 mph - 0.05 in Rain Light Rain
9:55 PM 41.0 °F 34.3 °F 39.2 °F 93% 30.05 in 5.0 mi ENE 11.5 mph - 0.08 in Rain Rain
10:15 PM 41.0 °F 35.2 °F 39.2 °F 93% 30.05 in 4.0 mi NE 9.2 mph - 0.03 in Rain Light Rain
10:35 PM 41.0 °F 34.7 °F 39.2 °F 93% 30.04 in 5.0 mi ENE 10.4 mph - 0.03 in   Light Drizzle
10:55 PM 41.0 °F 34.7 °F 39.2 °F 93% 30.04 in 5.0 mi ENE 10.4 mph - 0.03 in Rain Light Rain
11:15 PM 41.0 °F 34.7 °F 39.2 °F 93% 30.03 in 5.0 mi NE 10.4 mph - 0.01 in   Light Drizzle
11:35 PM 41.0 °F 34.3 °F 39.2 °F 93% 30.02 in 7.0 mi NE 11.5 mph - 0.01 in   Overcast
11:55 PM 41.0 °F 35.2 °F 39.2 °F 93% 30.01 in 5.0 mi NE 9.2 mph - 0.01 in   Overcast